KC0AFB Weather Reports


time (UTC)temp
F
wind
direction
speed
knots
gust
knots
rain 1hr
in
rain 24hr
in
rain mn
in
humidity
%
barometer
mb
20260503225908 72 283 9.6 12.2 0.00 0.00 0.00 31 1003.0
20260503225404 73 255 10.4 13.0 0.00 0.00 0.00 30 1002.9
20260503224900 74 254 7.0 9.6 0.00 0.00 0.00 32 1003.1
20260503224357 74 254 8.7 9.6 0.00 0.00 0.00 29 1003.2
20260503223855 74 281 9.6 11.3 0.00 0.00 0.00 29 1003.3
20260503223353 73 288 6.1 7.0 0.00 0.00 0.00 31 1003.4
20260503222848 75 290 11.3 13.9 0.00 0.00 0.00 28 1003.5
20260503222347 75 219 7.0 8.7 0.00 0.00 0.00 29 1003.5
20260503221845 75 237 9.6 17.4 0.00 0.00 0.00 29 1003.8
20260503221343 75 239 8.7 12.2 0.00 0.00 0.00 30 1003.8
20260503220838 73 291 10.4 12.2 0.00 0.00 0.00 30 1003.8
20260503220336 74 252 8.7 11.3 0.00 0.00 0.00 30 1003.9
20260503215833 73 242 12.2 14.8 0.00 0.00 0.00 29 1003.9
20260503215330 75 275 7.8 9.6 0.00 0.00 0.00 32 1003.8
20260503214827 75 217 13.0 18.2 0.00 0.00 0.00 29 1004.1
20260503214325 75 234 9.6 12.2 0.00 0.00 0.00 29 1004.2
20260503213822 74 227 9.6 13.9 0.00 0.00 0.00 32 1004.2
20260503213319 75 295 9.6 13.0 0.00 0.00 0.00 31 1004.5
20260503212816 74 240 11.3 13.9 0.00 0.00 0.00 30 1004.4
20260503212314 73 250 8.7 11.3 0.00 0.00 0.00 31 1004.6
20260503211811 73 254 7.8 11.3 0.00 0.00 0.00 32 1004.8
20260503211308 72 274 9.6 11.3 0.00 0.00 0.00 31 1004.9
20260503210808 73 212 10.4 13.0 0.00 0.00 0.00 31 1005.1
20260503210305 74 280 7.8 11.3 0.00 0.00 0.00 32 1005.3
20260503205800 73 245 9.6 11.3 0.00 0.00 0.00 31 1005.5
20260503205257 73 205 9.6 13.0 0.00 0.00 0.00 32 1005.7
20260503204754 73 221 7.8 8.7 0.00 0.00 0.00 32 1005.9
20260503204251 73 276 9.6 11.3 0.00 0.00 0.00 32 1005.9
20260503203749 73 286 11.3 13.9 0.00 0.00 0.00 32 1006.1
20260503203246 73 250 9.6 11.3 0.00 0.00 0.00 31 1006.2
20260503202743 73 297 8.7 13.0 0.00 0.00 0.00 31 1006.2
20260503202241 72 280 9.6 13.9 0.00 0.00 0.00 32 1006.5
20260503201738 73 250 8.7 11.3 0.00 0.00 0.00 31 1006.5
20260503201236 73 270 9.6 13.9 0.00 0.00 0.00 31 1006.5
20260503200732 73 273 13.0 17.4 0.00 0.00 0.00 29 1006.7
20260503200228 72 282 13.0 14.8 0.00 0.00 0.00 31 1006.7
20260503195725 73 280 8.7 11.3 0.00 0.00 0.00 32 1006.9
20260503195222 72 299 6.1 7.0 0.00 0.00 0.00 32 1007.0
20260503194720 72 287 13.0 18.2 0.00 0.00 0.00 31 1007.2
20260503194215 72 285 7.8 8.7 0.00 0.00 0.00 32 1007.1
20260503193712 72 284 9.6 13.0 0.00 0.00 0.00 33 1007.5
20260503193208 71 229 10.4 13.9 0.00 0.00 0.00 32 1007.2
20260503192704 71 211 10.4 12.2 0.00 0.00 0.00 32 1007.7
20260503192159 72 211 7.8 9.6 0.00 0.00 0.00 34 1007.8
20260503191655 71 237 10.4 13.0 0.00 0.00 0.00 31 1007.7
20260503191153 71 235 7.8 9.6 0.00 0.00 0.00 33 1007.9
20260503190650 70 228 12.2 14.8 0.00 0.00 0.00 33 1008.2
20260503190147 71 272 13.0 15.6 0.00 0.00 0.00 31 1008.4
20260503185643 70 269 7.0 7.8 0.00 0.00 0.00 34 1008.3
20260503185139 71 268 6.1 7.0 0.00 0.00 0.00 35 1008.5
20260503184634 71 221 9.6 11.3 0.00 0.00 0.00 34 1008.6
20260503184131 70 303 7.0 8.7 0.00 0.00 0.00 34 1008.6
20260503183627 70 270 9.6 13.0 0.00 0.00 0.00 34 1008.9
20260503183125 69 297 7.8 12.2 0.00 0.00 0.00 35 1009.3
20260503182623 70 293 7.0 8.7 0.00 0.00 0.00 37 1009.4
20260503182121 69 284 6.1 7.0 0.00 0.00 0.00 34 1009.3
20260503181617 69 242 12.2 13.9 0.00 0.00 0.00 35 1009.7
20260503181114 68 216 3.5 5.2 0.00 0.00 0.00 36 1009.7
20260503180611 68 271 4.3 6.1 0.00 0.00 0.00 37 1010.0
20260503180109 68 241 7.8 9.6 0.00 0.00 0.00 36 1009.9
20260503175605 68 226 7.8 8.7 0.00 0.00 0.00 36 1010.1
20260503175103 68 244 7.0 8.7 0.00 0.00 0.00 37 1010.2
20260503174559 67 271 6.1 7.0 0.00 0.00 0.00 37 1010.3
20260503174056 68 304 7.8 11.3 0.00 0.00 0.00 36 1010.6
20260503173551 67 224 10.4 13.9 0.00 0.00 0.00 37 1010.6
20260503173048 67 226 10.4 14.8 0.00 0.00 0.00 36 1010.7
20260503172545 68 273 7.8 8.7 0.00 0.00 0.00 36 1010.8
20260503172042 67 277 7.0 9.6 0.00 0.00 0.00 37 1010.9
20260503171539 66 254 6.1 7.0 0.00 0.00 0.00 38 1011.1
20260503171036 66 253 5.2 6.1 0.00 0.00 0.00 38 1011.3
20260503170532 66 245 7.8 8.7 0.00 0.00 0.00 38 1011.3
20260503150925 56 209 3.5 4.3 0.00 0.00 0.00 50 1012.9
20260503150421 55 221 6.1 7.0 0.00 0.00 0.00 52 1012.9
20260503131314 43 225 0.9 1.7 0.00 0.00 0.00 65 1014.0
20260503130812 43 171 0.9 0.9 0.00 0.00 0.00 65 1013.9
20260503130309 42 144 0.9 0.9 0.00 0.00 0.00 65 1013.9
20260503110703 36 315 0.9 0.9 0.00 0.00 0.00 72 1014.1
20260503110200 36 316 0.0 0.0 0.00 0.00 0.00 72 1013.7
20260503100121 36 175 0.0 0.0 0.00 0.00 0.00 72 1014.1
20260503081458 40 243 0.0 0.0 0.00 0.00 0.00 67 1013.8
20260503080955 41 240 0.9 0.9 0.00 0.00 0.00 65 1013.9
20260503080452 42 289 0.9 0.9 0.00 0.00 0.00 63 1013.7
20260503072928 43 287 2.6 2.6 0.00 0.00 0.00 61 1013.8
20260503072425 44 281 1.7 1.7 0.00 0.00 0.00 62 1013.7
20260503071922 44 292 1.7 1.7 0.00 0.00 0.00 61 1014.0
20260503071419 44 268 1.7 1.7 0.00 0.00 0.00 61 1014.0
20260503070915 44 307 1.7 1.7 0.00 0.00 0.00 62 1013.9
20260503070413 44 281 1.7 1.7 0.00 0.00 0.00 62 1013.9
20260503060339 48 13 4.3 5.2 0.00 0.00 0.00 61 1013.3
20260503054826 49 345 4.3 6.1 0.00 0.00 0.00 61 1013.6
20260503054322 50 4 5.2 6.1 0.00 0.00 0.00 61 1013.7
20260503053820 50 39 3.5 4.3 0.00 0.00 0.00 61 1013.5
20260503053318 50 24 2.6 2.6 0.00 0.00 0.00 61 1013.4
20260503052814 50 5 3.5 5.2 0.00 0.00 0.00 62 1013.5
20260503052311 50 23 4.3 4.3 0.00 0.00 0.00 62 1013.3
20260503051807 50 20 3.5 4.3 0.00 0.00 0.00 62 1013.5
20260503051304 50 31 4.3 6.1 0.00 0.00 0.00 63 1013.3
20260503050801 51 355 2.6 2.6 0.00 0.00 0.00 63 1013.3
20260503050257 51 8 2.6 4.3 0.00 0.00 0.00 62 1013.3
20260503045755 52 337 2.6 4.3 0.00 0.00 0.00 62 1013.3
20260503045253 51 17 4.3 6.1 0.00 0.00 0.00 62 1013.3
20260503044748 51 22 1.7 1.7 0.00 0.00 0.00 63 1013.1
20260503044245 52 44 3.5 4.3 0.00 0.00 0.00 62 1013.2
20260503043743 52 26 3.5 4.3 0.00 0.00 0.00 61 1013.0
20260503043240 53 334 2.6 2.6 0.00 0.00 0.00 61 1013.0
20260503042735 53 27 2.6 2.6 0.00 0.00 0.00 60 1012.9
20260503042232 53 345 3.5 5.2 0.00 0.00 0.00 60 1013.0
20260503041728 53 26 1.7 1.7 0.00 0.00 0.00 61 1013.0
20260503041226 53 51 0.9 1.7 0.00 0.00 0.00 61 1012.6
20260503040723 54 50 1.7 1.7 0.00 0.00 0.00 60 1012.9
20260503040220 54 12 2.6 2.6 0.00 0.00 0.00 60 1012.7
20260503035717 53 333 3.5 5.2 0.00 0.00 0.00 60 1012.9
20260503035215 53 1 2.6 4.3 0.00 0.00 0.00 61 1013.0
20260503034712 53 25 1.7 1.7 0.00 0.00 0.00 61 1012.7
20260503034209 54 346 2.6 2.6 0.00 0.00 0.00 60 1012.7
20260503033706 54 14 3.5 4.3 0.00 0.00 0.00 59 1012.5
20260503033203 54 350 1.7 1.7 0.00 0.00 0.00 59 1012.7
20260503032701 55 298 4.3 6.1 0.00 0.00 0.00 58 1012.6
20260503032200 55 342 3.5 4.3 0.00 0.00 0.00 57 1012.5
20260503031656 55 286 4.3 6.1 0.00 0.00 0.00 58 1012.6
20260503031155 55 323 2.6 2.6 0.00 0.00 0.00 57 1012.4
20260503030650 55 12 4.3 6.1 0.00 0.00 0.00 57 1012.4
20260503030147 56 352 2.6 2.6 0.00 0.00 0.00 57 1012.3
20260503025644 56 312 5.2 6.1 0.00 0.00 0.00 56 1012.3
20260503025142 56 312 4.3 6.1 0.00 0.00 0.00 55 1012.2
20260503024638 56 325 4.3 5.2 0.00 0.00 0.00 55 1012.4
20260503024136 57 311 2.6 2.6 0.00 0.00 0.00 54 1012.1
20260503023632 57 343 4.3 5.2 0.00 0.00 0.00 54 1012.1
20260503023124 57 346 2.6 4.3 0.00 0.00 0.00 54 1012.0
20260503022620 58 325 4.3 5.2 0.00 0.00 0.00 52 1012.1
20260503022115 58 349 2.6 4.3 0.00 0.00 0.00 52 1012.0
20260503021612 59 303 4.3 6.1 0.00 0.00 0.00 51 1012.1
20260503021109 59 313 4.3 5.2 0.00 0.00 0.00 50 1011.9
20260503020606 60 340 4.3 6.1 0.00 0.00 0.00 49 1011.5
20260503015600 60 290 7.0 9.6 0.00 0.00 0.00 48 1011.9
20260503015057 61 340 4.3 5.2 0.00 0.00 0.00 47 1011.5
20260503014552 61 308 6.1 7.0 0.00 0.00 0.00 47 1011.6
20260503014050 62 348 6.1 7.0 0.00 0.00 0.00 46 1011.5
20260503013547 62 308 6.1 7.8 0.00 0.00 0.00 45 1011.3
20260503013045 62 331 7.0 8.7 0.00 0.00 0.00 45 1011.3
20260503012543 62 312 6.1 7.8 0.00 0.00 0.00 45 1011.2
20260503012039 62 318 6.1 8.7 0.00 0.00 0.00 45 1011.4
20260503011535 63 303 7.0 11.3 0.00 0.00 0.00 44 1010.9
20260503011033 63 306 7.0 8.7 0.00 0.00 0.00 44 1011.1
20260503010529 64 326 10.4 13.9 0.00 0.00 0.00 43 1011.1
20260503010027 64 298 7.8 8.7 0.00 0.00 0.00 42 1010.9
20260503005523 64 331 8.7 11.3 0.00 0.00 0.00 42 1010.8
20260503005021 64 325 5.2 9.6 0.00 0.00 0.00 42 1010.7
20260503004517 65 308 6.1 7.8 0.00 0.00 0.00 41 1010.8
20260503004015 65 298 6.1 7.8 0.00 0.00 0.00 41 1010.6
20260503003511 65 295 7.8 9.6 0.00 0.00 0.00 41 1010.6
20260503003009 66 327 11.3 15.6 0.00 0.00 0.00 40 1010.3
20260503002506 66 288 12.2 17.4 0.00 0.00 0.00 40 1010.5
20260503002002 65 302 7.0 7.8 0.00 0.00 0.00 40 1010.7
20260503001459 66 306 9.6 13.0 0.00 0.00 0.00 40 1010.5
20260503000956 65 314 11.3 14.8 0.00 0.00 0.00 39 1010.5
20260503000454 66 328 14.8 19.1 0.00 0.00 0.00 39 1010.6
20260502235950 67 340 13.0 15.6 0.00 0.00 0.00 39 1010.6
20260502235447 67 311 13.9 15.6 0.00 0.00 0.00 39 1010.8
20260502234945 67 333 12.2 14.8 0.00 0.00 0.00 39 1010.6
20260502234441 68 303 10.4 13.0 0.00 0.00 0.00 39 1010.6
20260502233938 68 327 10.4 12.2 0.00 0.00 0.00 38 1010.5
20260502233433 68 316 14.8 19.1 0.00 0.00 0.00 38 1010.7
20260502232931 68 327 12.2 14.8 0.00 0.00 0.00 39 1010.3
20260502232427 68 331 12.2 14.8 0.00 0.00 0.00 38 1010.4
20260502231924 68 304 9.6 13.9 0.00 0.00 0.00 38 1010.3
20260502231421 68 326 7.8 8.7 0.00 0.00 0.00 38 1010.2
20260502230919 68 337 13.9 18.2 0.00 0.00 0.00 37 1010.1
20260502230417 69 291 17.4 21.7 0.00 0.00 0.00 36 1010.2